{"data":{"norad_id":59079,"intl_designator":"2024-041F","name":"STARLINK-31257","alt_names":[],"object_type":"PAYLOAD","status":"ACTIVE","operator":null,"country":"US","launch_date":"2024-02-29","launch_site_code":"AFETR","launch_vehicle":null,"mission":null,"orbit_class":"UNKNOWN","rcs_meters":null,"size_class":null,"mass_kg":null,"dimensions":null,"purposes":["comms"],"wikipedia_slug":null,"has_3d_model":false,"image_url":null,"decayed_at":null,"tle_current":{"epoch":"2026-09-20T02:04:35.487840Z","epoch_age_seconds":191380,"freshness":"STALE","line1":"1 59079U 24041F   26263.08652185  .00000534  00000+0  28943-4 0  9996","line2":"2 59079  43.0035 292.7130 0001271 253.0300 107.0412 15.27577437144007","mean_motion":15.27577437,"eccentricity":0.0001271,"inclination_deg":43.0035,"raan_deg":292.713,"arg_perigee_deg":253.03,"mean_anomaly_deg":107.0412,"bstar":2.8943e-5,"rev_number":14400,"period_min":94.266906876289,"perigee_km":482.18471286617,"apogee_km":483.92882832266,"semimajor_km":6861.1937705944,"source":"CELESTRAK","updated_at":"2026-09-21T09:00:34.034508Z"}}}